Weather History for Tuscaloosa, AL

Change the Weather History Date:

Monday, November 5, 2012

  Actual Average Record
Temperature  
Mean Temperature 51 °F 58 °F  
Max Temperature 63 °F 71 °F 85 °F (2003)
Min Temperature 38 °F 46 °F 21 °F (1952)
Degree Days  
Heating Degree Days 14 8  
Month to date heating degree days 37 36  
Since 1 July heating degree days 150 153  
Moisture  
Dew Point 44 °F    
Average Humidity 71    
Maximum Humidity 100    
Minimum Humidity 42    
Precipitation  
Precipitation 0.35 in 0.12 in 1.19 in (2002)
Month to date precipitation 0.40 0.62  
Year to date precipitation 39.73 43.52  
Sea Level Pressure  
Sea Level Pressure 30.04 in    
Wind  
Wind Speed 3 mph (NNW)    
Max Wind Speed 10 mph    
Max Gust Speed 13 mph    
Visibility 8 miles    
Events Rain    
T = Trace of Precipitation, MM = Missing Value Source: NWS Daily Summary

Daily Weather History Graph

Daily Weather History Graph

Search for Another Location

Airport:

Trip Planner

Search our weather history database for the weather conditions in past years. The results will help you decide how hot, cold, wet, or windy it might be!

Date:

Astronomy

Nov. 05, 2012 Rise Set
Actual Time 6:12 AM CST 4:54 PM CST
Civil Twilight 5:46 AM CST 5:20 PM CST
Nautical Twilight 5:17 AM CST 5:50 PM CST
Astronomical Twilight 4:48 AM CST 6:19 PM CST
Moon 10:31 PM CST (11/5) 11:31 AM CST (11/5)
Length of Visible Light 11h 33m
Length of Day
10h 42m
Waning Gibbous, 62% of the Moon is Illuminated
Nov 5
Waning Gibbous
Nov 6
Last Quarter
Nov 13
New
Nov 20
First Quarter
Nov 28
Full

Hourly Weather History & Observations

Time (CST) Temp. Windchill Dew Point Humidity Pressure Visibility Wind Dir Wind Speed Gust Speed Precip Events Conditions
12:53 AM 45.0 °F - 42.1 °F 90% 30.11 in 10.0 mi Calm Calm - N/A   Clear
1:53 AM 43.0 °F 41.3 °F 41.0 °F 93% 30.11 in 9.0 mi NNE 3.5 mph - N/A   Clear
2:53 AM 41.0 °F 37.1 °F 39.0 °F 93% 30.11 in 10.0 mi North 5.8 mph - N/A   Clear
3:53 AM 41.0 °F - 39.0 °F 93% 30.11 in 8.0 mi Calm Calm - N/A   Clear
4:53 AM 39.9 °F - 37.9 °F 93% 30.12 in 6.0 mi Calm Calm - N/A   Clear
5:53 AM 37.9 °F 34.4 °F 36.0 °F 93% 30.12 in 8.0 mi NNE 4.6 mph - N/A   Clear
6:53 AM 41.0 °F 39.0 °F 39.0 °F 93% 30.12 in 7.0 mi North 3.5 mph - N/A   Clear
7:53 AM 46.9 °F - 42.1 °F 83% 30.12 in 6.0 mi Calm Calm - N/A   Haze
8:53 AM 53.1 °F - 42.1 °F 66% 30.11 in 10.0 mi Calm Calm - N/A   Clear
9:53 AM 57.9 °F - 41.0 °F 53% 30.09 in 10.0 mi NE 4.6 mph - N/A   Clear
10:53 AM 61.0 °F - 37.0 °F 41% 30.07 in 10.0 mi ENE 5.8 mph - N/A   Clear
11:53 AM 62.1 °F - 39.0 °F 43% 30.05 in 10.0 mi WSW 5.8 mph - N/A   Partly Cloudy
12:53 PM 61.0 °F - 39.9 °F 46% 30.02 in 10.0 mi SSW 5.8 mph - N/A   Partly Cloudy
1:53 PM 62.1 °F - 41.0 °F 46% 30.00 in 10.0 mi West 4.6 mph - N/A   Scattered Clouds
2:53 PM 62.1 °F - 42.1 °F 48% 29.99 in 10.0 mi WSW 3.5 mph - N/A   Clear
3:53 PM 60.1 °F - 45.0 °F 57% 29.96 in 10.0 mi SSW 3.5 mph - N/A   Clear
4:53 PM 57.9 °F - 45.0 °F 62% 30.01 in 10.0 mi West 6.9 mph - 0.00 in Rain Light Rain
5:53 PM 53.1 °F - 50.0 °F 89% 30.00 in 8.0 mi Calm Calm - 0.03 in Rain Light Rain
6:53 PM 52.0 °F - 51.1 °F 97% 29.98 in 7.0 mi Calm Calm - 0.01 in Rain Light Rain
7:53 PM 52.0 °F - 50.0 °F 93% 30.02 in - West 4.6 mph - 0.16 in Rain Rain
8:01 PM 51.8 °F - 50.0 °F 94% 30.02 in 2.0 mi Calm Calm - 0.04 in Rain Rain
8:22 PM 51.8 °F - 50.0 °F 94% 30.00 in 5.0 mi NE 5.8 mph - 0.13 in Rain Light Rain
8:53 PM 51.1 °F - 48.9 °F 92% 30.03 in 7.0 mi West 4.6 mph - 0.13 in Rain Light Rain
9:21 PM 51.8 °F - 48.2 °F 88% 30.02 in 5.0 mi WNW 4.6 mph - 0.02 in Rain Light Rain
9:30 PM 51.8 °F - 48.2 °F 88% 30.01 in 6.0 mi WNW 3.5 mph - 0.02 in Rain Light Rain
9:41 PM 51.8 °F - 48.2 °F 88% 30.00 in 7.0 mi Calm Calm - 0.02 in   Overcast
9:53 PM 51.1 °F - 48.9 °F 92% 29.99 in 6.0 mi ENE 5.8 mph - 0.02 in Rain Light Rain
10:02 PM 51.8 °F - 48.2 °F 88% 29.99 in 7.0 mi ENE 4.6 mph - 0.00 in Rain Light Rain
10:53 PM 51.1 °F - 48.9 °F 92% 29.97 in 10.0 mi North 3.5 mph - 0.00 in   Overcast
11:53 PM 48.9 °F - 48.9 °F 100% 29.97 in 7.0 mi Calm Calm - N/A   Overcast